Campbell Airport

Jump to: basic info | weather | frequencies | runways | comments

Related pages: nearby airports | nearby navaids | notams | map

Basic information (top)

Codes: KC81 C81
Location: lon 42.324600, lat -88.074097, elev 788 ft / 240 m msl
Status: small_airport
Scheduled airline service: no
Links: Wikipedia Mobile

Weather (top)

Current conditions for Waukegan Regional Airport 11nm (20km) ENE (rec'd 2014/10/23 17:55Z):

KUGN 231755Z 21007KT 10SM CLR 15/06 A3013 RMK AO2 SLP207 T01500056 10150 20011 58021

Airport forecast for Kenosha Regional Airport 18nm (32km) NNE (rec'd 2014/10/23 18:42Z):

TAF KENW 231741Z 2318/2418 20010KT P6SM OVC200 
     FM232100 18007KT 5SM -SHRA BR OVC035 
     FM240100 20005KT P6SM VCSH OVC035 
     FM240400 23005KT 3SM BR OVC020 
     FM240900 28004KT 2SM BR OVC005 
     FM241600 25005KT P6SM SCT005

Frequencies (top)

Verify before use: may be inaccurate or out of date.

A/D: 120.55 MHz (CHICAGO APP/DEP)
UNIC: 122.7 MHz (CTAF/UNICOM)

Runways (top)

06/24: 3,573 x 40 ft (1,089 x 12 m) — other (COP) — not lighted — threshold 24 displaced 301 ft (92 m)

09/27: 3,270 x 40 ft (997 x 12 m) — paved — lighted

Latest comments (top)

My aviation birthplace.: I did my Private Pilot training here. [read]

More... (top)

See also NOTAMs and nearby airports and navaids, or visit the Campbell Airport page at the main OurAirports website..